Wind_Speed
21 23 24 25 26 26 26 26 27 27 27 28 29 30 31 32 33 34 35 37 39 41 43 45 47 49 49 49 49 48 47 47 46 44 43 41 39 38 37 35 34 33 32 32
21 22 23 23 22 22 22 22 23 24 24 25 27 28 30 31 32 34 36 39 41 42 44 45 48 50 51 51 51 52 51 49 48 47 46 45 43 41 40 39 38 37 36 35
20 20 19 19 19 19 19 21 21 22 23 24 26 27 28 30 33 35 38 40 42 42 43 45 47 48 49 50 51 51 51 51 50 49 47 46 44 43 42 42 42 41 40 39
17 17 17 17 17 18 18 19 20 21 23 25 25 27 26 29 32 34 37 39 40 40 40 41 44 45 46 47 49 49 49 49 49 48 47 46 44 43 43 43 43 43 43 42
15 15 15 16 16 17 17 18 19 20 21 22 22 24 25 26 28 31 33 34 34 35 35 36 37 38 39 41 42 43 44 44 44 45 45 44 43 42 42 42 42 42 42 42
14 14 14 14 15 15 15 16 17 18 19 19 20 22 22 22 23 25 26 28 29 29 29 30 30 30 30 30 31 33 35 37 39 40 41 42 41 40 39 39 39 39 39 39
13 13 13 13 13 13 14 15 15 15 15 16 17 18 19 19 21 22 22 22 22 23 24 24 23 21 21 21 21 23 26 29 32 34 36 37 37 37 37 36 35 35 34 34
11 10 11 11 11 11 12 12 12 13 13 13 14 15 17 18 20 21 22 21 20 20 20 18 16 14 13 13 13 14 17 21 25 28 30 31 32 32 32 32 31 31 32 32
9 9 9 10 10 10 10 10 10 10 11 11 12 14 16 18 19 20 21 21 20 19 19 18 15 13 10 8 8 8 10 14 17 20 22 24 26 27 27 28 29 30 31 32
9 9 10 10 10 9 10 10 9 8 9 10 12 14 16 17 18 19 20 21 21 21 22 19 15 12 11 8 6 6 6 7 9 12 16 19 21 22 23 25 27 29 31 33
11 12 12 12 12 12 11 10 9 8 9 11 13 15 16 16 18 19 20 21 21 21 22 20 18 15 13 11 9 8 6 4 2 4 7 10 12 15 18 20 22 25 28 30
13 14 14 14 13 13 13 12 11 10 12 13 14 15 16 17 19 20 21 21 21 21 21 21 20 18 16 15 14 12 10 9 8 6 3 1 2 4 7 10 13 15 17 19
15 16 16 15 15 15 15 14 13 13 14 14 15 16 17 18 20 21 21 21 21 21 21 21 21 21 18 18 17 16 16 15 14 13 11 9 7 5 3 3 4 6 8 10
16 17 17 17 17 16 16 15 15 15 15 15 16 17 18 19 20 21 21 20 21 21 22 22 22 23 23 23 22 21 20 19 18 17 15 14 12 10 9 7 5 5 5 6
16 16 17 17 17 16 16 16 16 17 17 17 18 18 19 19 20 20 20 20 20 21 22 22 22 22 23 23 23 22 21 20 19 18 17 16 14 12 11 9 8 7 7 8
16 16 16 16 16 16 16 16 17 17 18 18 18 18 19 19 20 20 19 19 19 20 21 22 22 22 22 22 22 21 21 20 20 19 18 17 16 14 12 11 10 10 10 11
15 16 16 15 15 16 16 16 17 17 17 18 18 19 19 19 19 19 19 19 19 19 20 21 21 22 21 22 22 21 21 21 20 20 20 19 17 16 15 14 13 12 12 12
15 15 16 15 15 15 16 17 17 17 17 18 18 18 18 18 18 18 18 18 18 18 18 19 19 19 19 20 20 20 20 20 20 21 21 21 20 19 18 17 16 15 14 14
13 13 14 15 15 15 16 17 17 17 17 18 18 18 18 18 17 17 17 17 17 17 17 17 17 18 17 18 18 18 19 20 21 21 22 23 23 22 21 20 18 18 17 17
9 10 11 12 13 15 16 16 17 17 18 18 19 18 17 17 16 16 16 16 16 15 15 15 16 17 17 17 17 17 18 20 20 21 22 23 24 24 23 22 21 21 21 20
6 7 8 9 10 12 14 15 16 16 17 18 19 19 18 17 15 14 14 14 14 14 14 15 15 16 17 17 17 17 18 19 20 20 22 23 24 24 24 23 23 23 23 23
7 6 7 7 8 9 11 13 15 15 16 18 19 19 18 17 15 14 13 13 13 13 13 14 15 16 16 17 17 17 17 18 19 20 22 23 24 24 24 24 24 24 24 25
10 8 8 8 8 8 9 11 12 13 15 16 17 18 18 17 15 14 13 12 12 11 12 12 13 14 15 16 17 17 17 18 19 20 21 22 23 24 24 24 24 24 25 26
13 12 11 10 9 9 9 10 10 12 13 14 15 16 18 17 16 14 13 11 10 9 9 10 11 13 14 15 16 17 17 18 18 19 20 21 22 23 23 23 24 24 25 26
16 15 13 12 11 11 10 10 10 10 11 12 13 14 16 17 16 15 13 11 9 8 7 8 10 11 12 13 14 16 17 18 19 19 20 20 21 22 23 23 24 24 25 26
17 16 16 15 13 13 11 11 10 10 10 11 11 12 14 15 16 15 14 11 9 7 6 6 7 9 10 11 12 14 16 17 19 20 20 20 21 21 22 23 24 25 25 26
Wind_Direction
265 271 275 280 283 285 287 288 288 288 288 288 288 288 288 287 285 283 281 279 278 276 274 271 270 268 264 262 259 256 254 252 250 250 251 251 252 254 255 257 257 258 260 263
274 279 282 285 286 287 288 289 289 289 290 290 290 290 290 289 288 286 285 284 281 280 278 276 273 270 267 265 263 260 256 253 250 249 249 250 251 253 254 257 259 259 260 263
280 284 286 287 287 287 289 291 292 292 293 293 293 293 293 291 290 289 288 287 285 283 279 277 274 271 269 266 263 262 258 254 251 250 249 249 250 251 252 253 255 257 258 260
287 289 290 290 291 293 295 296 294 293 295 297 299 297 297 295 294 293 293 292 290 287 285 282 278 276 272 269 265 263 261 259 256 253 251 250 250 250 251 252 253 255 257 258
294 297 299 299 299 299 299 298 297 298 298 299 302 301 304 302 302 301 300 300 297 295 293 290 285 281 277 273 268 265 261 260 258 256 254 253 253 252 252 253 254 255 257 259
303 304 305 304 303 302 302 303 303 302 302 303 306 307 311 311 310 310 310 308 306 305 302 299 295 290 284 278 269 263 259 257 256 255 254 253 253 254 254 254 255 255 257 257
313 314 313 312 310 307 306 307 308 309 309 311 313 318 324 324 324 326 327 323 322 322 319 317 309 300 291 283 274 266 258 255 253 252 251 251 252 254 255 255 255 255 255 255
330 327 328 329 328 323 318 315 317 319 322 325 328 333 337 338 340 343 345 345 342 340 339 336 333 324 308 296 285 273 264 259 256 253 252 253 253 254 256 256 255 253 252 252
358 359 356 352 346 339 333 330 329 330 333 337 341 347 351 354 358 2 5 6 5 1 357 357 354 356 349 329 318 307 284 270 261 256 255 254 255 255 256 256 256 255 254 255
20 21 19 13 4 357 350 347 345 343 348 356 1 4 6 8 10 13 16 19 22 22 23 23 22 21 20 13 3 343 314 296 273 262 258 256 257 258 257 258 259 260 260 261
40 39 32 24 19 14 10 8 6 7 15 18 16 17 18 20 19 19 19 19 24 27 28 33 39 39 38 35 32 28 32 27 328 275 262 260 260 261 262 264 265 266 266 268
51 48 40 33 29 26 29 31 31 33 30 26 26 26 26 24 22 21 23 26 29 30 33 37 41 44 48 52 54 55 55 58 60 61 55 48 271 266 268 270 271 272 273 275
55 53 48 44 41 40 41 41 40 37 36 36 32 29 27 25 23 23 24 28 33 36 40 43 45 48 52 55 60 63 65 66 68 67 65 65 64 57 35 348 314 298 291 288
54 55 51 47 44 45 46 43 41 39 39 36 33 30 28 26 24 24 27 32 37 41 44 48 50 53 55 57 61 63 64 63 63 62 63 62 60 56 51 39 22 359 337 319
51 54 52 49 46 45 46 44 42 39 36 34 31 29 27 25 25 27 32 38 42 46 49 51 54 56 57 58 59 59 59 58 57 55 53 50 46 41 34 23 10 355 340 326
50 52 52 50 47 45 44 43 41 38 36 34 32 30 28 29 29 33 37 42 45 47 49 53 56 57 57 56 55 54 53 52 51 48 45 40 36 30 22 11 359 348 337 325
49 48 48 49 47 45 45 42 40 37 36 34 33 31 31 31 31 34 39 43 47 49 52 53 54 55 55 53 51 51 49 48 45 42 38 34 30 25 19 12 4 357 350 342
46 46 46 47 47 47 44 44 41 39 36 34 32 31 31 32 33 36 41 45 49 51 51 51 51 51 50 48 46 44 42 41 39 37 35 32 30 26 23 19 16 12 5 360
40 41 44 45 46 44 41 40 39 36 35 33 32 32 32 33 35 38 42 45 47 50 50 49 49 47 45 44 43 42 40 38 36 35 34 32 31 28 26 24 22 19 15 9
24 28 31 35 38 39 36 36 35 34 35 32 31 32 32 32 35 37 40 42 44 46 47 45 44 43 42 42 42 41 39 36 35 34 33 31 29 29 29 29 28 26 22 17
352 4 11 17 24 29 28 29 29 32 30 31 32 32 32 32 35 35 36 39 40 42 43 42 41 40 40 40 41 38 36 35 34 34 32 30 30 31 31 31 31 29 26 23
305 325 339 350 359 11 14 18 23 24 24 27 28 29 31 33 35 34 35 37 39 41 43 44 42 40 38 38 38 36 34 33 33 32 31 30 30 30 31 31 31 30 28 27
281 293 303 316 331 342 351 2 9 13 17 20 23 24 27 29 31 32 33 36 39 42 44 43 40 38 36 36 35 34 32 31 30 30 30 30 30 30 30 31 30 29 28 28
271 278 286 294 301 312 325 335 346 356 4 10 15 19 22 24 26 28 30 33 37 41 44 42 38 37 35 34 33 33 32 31 29 27 28 29 29 29 29 29 29 28 28 28
265 270 276 282 288 296 306 313 322 334 345 354 1 8 14 18 21 23 26 30 34 38 41 39 37 36 34 33 33 32 32 30 28 26 26 27 28 28 28 28 28 27 27 27
263 267 271 276 281 286 293 299 305 315 326 335 345 354 4 11 16 19 21 24 29 33 35 34 32 32 32 32 32 32 31 30 28 27 26 28 28 27 27 28 28 28 27 28
Height
5893 5893 5891 5890 5889 5887 5885 5883 5881 5879 5877 5875 5873 5871 5869 5867 5865 5863 5860 5858 5856 5854 5851 5849 5848 5846 5846 5846 5847 5848 5850 5852 5854 5855 5857 5859 5861 5862 5864 5865 5866 5867 5868 5869
5890 5888 5887 5886 5884 5882 5880 5878 5876 5873 5872 5870 5867 5865 5863 5860 5857 5854 5851 5848 5845 5842 5840 5837 5835 5833 5832 5831 5832 5833 5836 5838 5841 5844 5846 5849 5851 5854 5856 5857 5858 5859 5860 5861
5886 5885 5883 5881 5879 5877 5875 5873 5871 5868 5866 5864 5862 5859 5857 5853 5849 5846 5842 5838 5834 5831 5828 5825 5821 5819 5817 5817 5817 5818 5821 5824 5828 5831 5835 5838 5841 5844 5847 5848 5850 5851 5852 5853
5882 5881 5879 5877 5875 5872 5871 5868 5866 5863 5861 5858 5857 5853 5850 5846 5842 5838 5833 5828 5823 5820 5816 5812 5808 5805 5804 5803 5803 5804 5807 5811 5815 5819 5823 5827 5831 5834 5837 5839 5840 5842 5843 5845
5879 5877 5875 5873 5870 5868 5866 5864 5861 5859 5856 5853 5851 5847 5845 5840 5836 5831 5825 5819 5814 5810 5805 5800 5796 5793 5791 5790 5790 5792 5795 5799 5803 5808 5812 5816 5820 5824 5827 5829 5831 5833 5834 5836
5876 5874 5872 5869 5867 5864 5862 5860 5858 5855 5852 5850 5846 5843 5840 5836 5831 5826 5820 5813 5807 5802 5797 5792 5786 5783 5781 5780 5779 5781 5784 5788 5792 5796 5801 5806 5810 5813 5817 5819 5822 5824 5826 5828
5873 5871 5868 5866 5864 5862 5859 5858 5855 5852 5849 5847 5843 5840 5837 5831 5826 5821 5815 5809 5803 5797 5791 5785 5780 5776 5774 5773 5773 5774 5776 5779 5783 5787 5791 5795 5800 5804 5807 5810 5813 5815 5817 5819
5871 5869 5866 5863 5861 5859 5856 5855 5853 5850 5847 5844 5841 5837 5834 5829 5823 5817 5811 5805 5800 5794 5789 5782 5777 5774 5771 5770 5769 5769 5771 5773 5776 5779 5783 5787 5791 5795 5799 5802 5804 5807 5809 5811
5870 5868 5865 5862 5860 5858 5855 5852 5851 5849 5845 5843 5840 5837 5832 5827 5821 5816 5811 5805 5799 5793 5788 5782 5777 5773 5771 5770 5769 5768 5769 5770 5772 5774 5777 5781 5784 5788 5791 5794 5797 5799 5801 5803
5870 5868 5866 5863 5860 5858 5855 5852 5850 5848 5845 5842 5840 5836 5832 5827 5822 5817 5812 5806 5800 5794 5789 5783 5778 5775 5773 5771 5770 5769 5768 5768 5769 5771 5773 5776 5779 5782 5784 5787 5790 5792 5794 5795
5871 5869 5867 5864 5860 5858 5855 5853 5850 5848 5845 5843 5839 5838 5833 5828 5823 5818 5813 5808 5803 5797 5792 5787 5782 5779 5776 5773 5771 5770 5768 5768 5768 5769 5770 5772 5774 5777 5779 5781 5782 5784 5785 5786
5873 5871 5868 5865 5862 5859 5857 5854 5852 5850 5846 5843 5840 5840 5834 5829 5825 5820 5815 5810 5805 5800 5796 5791 5787 5783 5780 5777 5775 5773 5771 5770 5770 5769 5770 5771 5772 5773 5775 5776 5776 5777 5778 5778
5876 5873 5871 5868 5867 5863 5859 5856 5854 5851 5848 5845 5842 5842 5835 5830 5826 5822 5818 5813 5809 5804 5800 5796 5792 5788 5785 5782 5780 5778 5776 5775 5774 5773 5772 5772 5772 5772 5773 5773 5773 5773 5773 5773
5879 5876 5874 5872 5868 5865 5862 5860 5857 5854 5850 5847 5844 5841 5836 5832 5828 5824 5820 5816 5812 5808 5804 5800 5797 5794 5791 5788 5785 5783 5782 5780 5778 5777 5776 5775 5774 5773 5773 5772 5772 5771 5770 5769
5882 5879 5876 5873 5871 5868 5866 5863 5860 5857 5853 5850 5846 5842 5839 5835 5831 5827 5823 5819 5815 5812 5808 5805 5802 5799 5796 5794 5791 5789 5787 5785 5783 5781 5780 5778 5777 5775 5774 5773 5771 5770 5769 5768
5885 5882 5879 5877 5874 5871 5869 5866 5863 5859 5856 5852 5848 5845 5841 5837 5833 5829 5826 5822 5819 5816 5813 5810 5807 5804 5801 5799 5797 5794 5792 5790 5788 5785 5783 5781 5779 5777 5775 5773 5771 5769 5768 5766
5887 5885 5882 5880 5877 5875 5872 5869 5866 5863 5859 5855 5851 5848 5843 5840 5836 5832 5829 5825 5822 5820 5817 5814 5812 5809 5807 5804 5802 5799 5797 5794 5792 5789 5786 5784 5781 5778 5776 5773 5771 5768 5766 5764
5890 5888 5885 5883 5881 5878 5878 5871 5869 5865 5862 5858 5854 5850 5846 5843 5839 5835 5832 5829 5826 5824 5822 5819 5817 5814 5812 5809 5806 5804 5801 5799 5796 5792 5789 5786 5783 5780 5777 5774 5771 5768 5765 5762
5892 5890 5888 5886 5883 5880 5878 5874 5871 5868 5865 5861 5857 5853 5849 5845 5842 5839 5836 5833 5830 5828 5826 5823 5821 5819 5816 5813 5811 5808 5805 5802 5799 5796 5792 5789 5785 5782 5778 5775 5771 5768 5765 5762
5894 5892 5891 5888 5885 5883 5882 5877 5873 5871 5867 5863 5859 5855 5852 5848 5845 5843 5839 5836 5834 5831 5829 5827 5825 5822 5820 5817 5814 5812 5809 5806 5803 5799 5796 5792 5788 5784 5780 5777 5773 5770 5766 5762
5894 5893 5891 5889 5886 5884 5883 5879 5876 5874 5872 5866 5862 5858 5854 5851 5848 5845 5842 5839 5837 5835 5832 5830 5828 5825 5823 5820 5818 5815 5812 5810 5806 5803 5799 5796 5792 5788 5784 5780 5776 5772 5768 5763
5893 5892 5891 5889 5887 5887 5883 5880 5878 5876 5872 5868 5864 5860 5857 5853 5850 5847 5844 5842 5839 5837 5835 5833 5831 5829 5826 5824 5821 5818 5816 5813 5810 5806 5803 5799 5795 5791 5787 5783 5779 5775 5770 5765
5892 5891 5890 5889 5889 5886 5883 5881 5879 5876 5873 5870 5866 5863 5859 5856 5852 5849 5846 5844 5842 5839 5838 5836 5834 5832 5829 5827 5824 5821 5819 5816 5813 5810 5806 5802 5799 5795 5791 5786 5782 5778 5773 5768
5889 5888 5888 5887 5886 5884 5882 5880 5878 5876 5874 5871 5868 5865 5861 5858 5855 5851 5848 5846 5843 5841 5840 5838 5836 5834 5832 5829 5827 5824 5821 5819 5816 5813 5809 5806 5802 5798 5794 5790 5786 5781 5776 5771
5886 5885 5885 5884 5883 5882 5881 5879 5877 5875 5873 5871 5869 5866 5863 5860 5856 5853 5850 5847 5845 5843 5841 5840 5838 5836 5834 5832 5830 5827 5824 5822 5819 5815 5812 5808 5805 5801 5797 5793 5789 5784 5779 5774
5882 5882 5882 5881 5881 5880 5879 5877 5876 5874 5872 5871 5869 5866 5864 5861 5858 5854 5851 5848 5846 5844 5842 5841 5839 5838 5836 5834 5832 5830 5827 5824 5821 5818 5815 5811 5808 5804 5800 5796 5792 5787 5783 5778